�N����,����,�~����,�C��,���x,�C��,����,���ϕ���,�ő�u�ԕ���,�ő厞����,���˗�,�I�_���x,�n�����x,�ő啗���N��,DTYPE
"20/07/17","00:10",0.0,21.2,90.3,1001.0,288.9,1.0,1.4,269.9,0.00,19.6,24.2,"00:02:08",1
"20/07/17","00:20",0.0,21.2,90.5,1001.0,309.5,1.1,2.4,330.9,0.00,19.6,24.1,"00:19:44",1
"20/07/17","00:30",0.0,21.1,90.6,1001.2,321.0,1.3,2.0,326.4,0.00,19.5,24.1,"00:24:40",1
"20/07/17","00:40",0.0,21.2,90.7,1001.2,317.8,1.3,2.0,323.4,0.00,19.7,23.9,"00:31:36",1
"20/07/17","00:50",0.0,21.2,90.9,1001.5,304.9,1.1,1.9,323.3,0.00,19.7,23.9,"00:42:16",1
"20/07/17","01:00",0.0,21.3,91.0,1001.0,313.5,1.5,2.1,318.3,0.00,19.8,24.0,"00:56:56",1
"20/07/17","01:10",0.0,21.3,91.0,1001.2,298.8,1.2,2.6,333.7,0.00,19.8,24.0,"01:01:12",1
"20/07/17","01:20",0.0,21.3,91.1,1001.5,303.2,1.6,2.9,330.5,0.00,19.8,23.7,"01:19:12",1
"20/07/17","01:30",0.0,21.3,91.1,1001.2,295.7,1.5,2.5,311.0,0.00,19.8,23.9,"01:28:32",1
"20/07/17","01:40",0.0,21.3,91.1,1001.0,304.3,1.6,2.7,335.5,0.00,19.8,23.8,"01:34:40",1
"20/07/17","01:50",0.0,21.2,91.1,1001.2,309.6,1.6,2.5,332.8,0.00,19.7,23.7,"01:49:44",1
"20/07/17","02:00",0.0,21.1,91.1,1001.0,293.9,1.3,2.2,334.8,0.00,19.6,23.8,"01:50:32",1
"20/07/17","02:10",0.0,21.1,91.2,1001.2,297.2,1.1,1.7,315.5,0.00,19.6,23.8,"02:07:16",1
"20/07/17","02:20",0.0,21.1,91.3,1001.0,289.8,1.1,1.6,251.7,0.00,19.7,23.9,"02:18:32",1
"20/07/17","02:30",0.0,21.2,91.3,1000.8,298.9,1.3,2.0,319.2,0.00,19.8,23.7,"02:22:16",1
"20/07/17","02:40",0.0,21.2,91.3,1001.0,291.2,1.2,1.9,320.2,0.00,19.8,23.6,"02:32:24",1
"20/07/17","02:50",0.0,21.2,91.3,1001.0,297.3,1.2,2.5,318.8,0.00,19.8,23.7,"02:42:48",1
"20/07/17","03:00",0.0,21.2,91.3,1000.8,296.4,1.3,3.2,326.7,0.00,19.8,23.9,"02:58:32",1
"20/07/17","03:10",0.0,21.2,91.2,1001.0,320.9,2.6,3.7,322.9,0.00,19.7,23.6,"03:03:36",1
"20/07/17","03:20",0.0,21.3,91.0,1001.2,324.7,2.6,4.1,333.9,0.00,19.8,23.6,"03:18:00",1
"20/07/17","03:30",0.0,21.3,90.7,1001.2,326.0,2.6,4.2,338.6,0.00,19.8,23.5,"03:21:28",1
"20/07/17","03:40",0.0,21.3,90.6,1001.2,328.6,2.1,3.3,339.1,0.00,19.7,23.6,"03:30:56",1
"20/07/17","03:50",0.0,21.4,90.3,1001.2,331.3,2.6,4.3,338.6,0.00,19.8,23.5,"03:43:12",1
"20/07/17","04:00",0.0,21.4,90.1,1001.2,327.3,2.6,4.0,339.3,0.00,19.7,23.4,"03:58:00",1
"20/07/17","04:10",0.0,21.4,89.9,1001.2,326.0,2.3,4.5,336.4,0.00,19.7,23.2,"04:09:12",1
"20/07/17","04:20",0.0,21.4,89.6,1001.5,329.0,2.6,5.0,343.5,0.00,19.7,23.3,"04:11:44",1
"20/07/17","04:30",0.0,21.4,89.5,1001.5,330.3,2.8,4.8,347.1,0.00,19.6,23.2,"04:24:32",1
"20/07/17","04:40",0.0,21.4,89.3,1001.2,331.5,2.5,3.4,336.0,0.00,19.6,23.2,"04:35:20",1
"20/07/17","04:50",0.0,21.4,89.2,1001.7,330.8,2.2,3.4,335.9,0.00,19.6,23.4,"04:48:00",1
"20/07/17","05:00",0.0,21.4,89.1,1001.7,329.8,2.2,3.7,338.6,0.00,19.6,23.4,"04:50:40",1
"20/07/17","05:10",0.0,21.4,89.1,1001.7,332.4,2.1,3.2,333.9,0.00,19.6,23.3,"05:02:48",1
"20/07/17","05:20",0.0,21.2,89.1,1001.9,328.3,2.1,3.7,328.9,0.00,19.4,23.2,"05:17:28",1
"20/07/17","05:30",0.0,21.3,89.1,1001.7,326.2,2.2,4.5,337.2,0.00,19.5,23.1,"05:22:24",1
"20/07/17","05:40",0.0,21.3,89.1,1001.7,328.6,2.3,4.2,335.0,0.00,19.5,23.2,"05:32:00",1
"20/07/17","05:50",0.0,21.3,89.1,1001.9,327.0,2.2,3.6,324.5,0.00,19.5,23.1,"05:40:02",1
"20/07/17","06:00",0.0,21.2,89.1,1001.5,330.6,2.5,4.3,339.8,0.00,19.4,23.2,"05:59:36",1
"20/07/17","06:10",0.0,21.3,89.2,1001.7,333.0,2.3,4.1,337.1,0.00,19.5,23.1,"06:05:52",1
"20/07/17","06:20",0.0,21.2,89.4,1001.9,329.8,2.1,3.7,308.5,0.00,19.4,23.1,"06:12:08",1
"20/07/17","06:30",0.0,21.2,89.6,1002.2,326.1,1.8,3.4,333.2,0.00,19.5,23.2,"06:21:20",1
"20/07/17","06:40",0.2,21.2,89.7,1002.2,326.5,1.6,3.4,325.8,0.00,19.5,23.1,"06:37:44",1
"20/07/17","06:50",0.0,21.2,89.8,1001.9,320.4,1.8,3.2,338.7,0.00,19.5,23.0,"06:42:48",1
"20/07/17","07:00",0.0,21.2,90.1,1001.9,314.3,1.3,2.1,336.9,0.00,19.6,23.1,"06:54:08",1
"20/07/17","07:10",0.2,21.2,90.4,1002.4,322.1,1.3,2.6,338.9,0.01,19.6,23.3,"07:07:12",1
"20/07/17","07:20",0.0,21.2,90.7,1002.4,291.1,0.8,1.9,325.0,0.02,19.7,23.1,"07:11:20",1
"20/07/17","07:30",0.0,21.1,91.1,1002.6,327.0,1.6,2.8,341.9,0.02,19.6,23.0,"07:28:24",1
"20/07/17","07:40",0.0,21.3,91.4,1002.4,329.2,1.3,2.8,349.4,0.03,19.9,23.1,"07:34:56",1
"20/07/17","07:50",0.0,21.2,91.7,1002.4,317.8,1.5,2.7,337.0,0.01,19.8,23.2,"07:40:32",1
"20/07/17","08:00",0.2,21.1,91.9,1002.4,323.2,1.3,2.6,333.2,0.01,19.8,23.2,"07:50:24",1
"20/07/17","08:10",0.0,21.3,92.1,1002.9,283.5,0.6,1.4,327.1,0.02,20.0,23.1,"08:04:00",1
"20/07/17","08:20",0.2,21.2,92.4,1002.9,267.9,0.7,1.4,254.5,0.03,20.0,23.2,"08:11:44",1
"20/07/17","08:30",0.0,21.4,92.5,1002.9,268.6,0.7,2.1,285.1,0.06,20.2,23.0,"08:26:00",1
"20/07/17","08:40",0.2,21.7,92.7,1002.6,256.4,0.6,1.3,254.3,0.06,20.5,23.2,"08:37:52",1
"20/07/17","08:50",0.0,21.7,92.8,1002.9,255.2,0.6,1.2,248.2,0.05,20.5,23.1,"08:47:28",1
"20/07/17","09:00",0.0,21.8,92.9,1003.1,313.5,0.3,1.0,333.7,0.05,20.6,23.4,"08:50:16",1
"20/07/17","09:10",0.2,22.3,93.0,1002.9,25.7,0.5,1.0,22.2,0.10,21.2,23.0,"09:02:48",1
"20/07/17","09:20",0.2,22.3,92.8,1003.1,354.2,0.2,0.9,8.5,0.05,21.1,23.2,"09:10:16",1
"20/07/17","09:30",0.2,22.3,92.9,1003.1,44.2,0.8,1.8,43.0,0.04,21.1,23.5,"09:25:12",1
"20/07/17","09:40",0.6,22.5,93.1,1003.1,29.4,0.8,1.6,19.3,0.07,21.4,23.3,"09:38:08",1
"20/07/17","09:50",0.2,22.8,93.2,1003.6,351.5,0.5,1.1,16.0,0.10,21.7,23.6,"09:40:08",1
"20/07/17","10:00",0.4,22.7,93.2,1003.6,205.7,0.6,1.7,227.6,0.10,21.6,23.4,"09:54:56",1
"20/07/17","10:10",0.2,22.7,93.3,1003.6,268.2,0.5,1.3,342.6,0.12,21.6,23.5,"10:07:20",1
"20/07/17","10:20",0.2,23.1,93.4,1003.1,270.6,0.3,1.1,235.0,0.15,22.0,23.6,"10:12:40",1
"20/07/17","10:30",0.0,23.1,92.9,1003.4,231.3,0.7,2.0,223.3,0.15,21.9,23.7,"10:29:36",1
"20/07/17","10:40",0.2,22.9,92.6,1002.9,218.2,1.0,2.4,191.4,0.12,21.7,23.8,"10:39:52",1
"20/07/17","10:50",0.0,22.8,93.2,1003.4,195.0,0.8,1.8,201.3,0.12,21.7,23.9,"10:42:56",1
"20/07/17","11:00",0.0,23.0,93.2,1003.1,238.3,0.6,1.4,206.1,0.12,21.9,23.9,"10:51:12",1
"20/07/17","11:10",0.0,23.3,93.2,1002.6,334.0,0.3,1.0,353.9,0.14,22.2,23.8,"11:00:56",1
"20/07/17","11:20",0.0,23.8,93.2,1002.6,270.1,0.3,1.1,223.6,0.19,22.7,23.9,"11:19:44",1
"20/07/17","11:30",0.0,24.0,92.8,1002.2,227.8,0.5,1.0,208.2,0.23,22.8,24.0,"11:20:16",1
"20/07/17","11:40",0.0,24.6,92.3,1001.9,141.9,0.5,1.0,157.1,0.27,23.3,24.2,"11:37:28",1
"20/07/17","11:50",0.0,24.5,92.3,1001.9,225.5,0.8,2.2,232.7,0.21,23.2,24.4,"11:45:12",1
"20/07/17","12:00",0.0,24.6,92.0,1002.2,251.2,0.5,1.0,299.2,0.20,23.3,24.2,"11:51:20",1
"20/07/17","12:10",0.0,24.6,91.0,1001.9,169.2,0.6,1.7,126.9,0.21,23.1,24.4,"12:08:08",1
"20/07/17","12:20",0.0,25.1,91.0,1001.9,159.4,0.3,1.0,135.7,0.21,23.6,24.6,"12:10:08",1
"20/07/17","12:30",0.0,25.3,90.1,1001.0,53.6,0.7,1.7,359.7,0.29,23.6,24.7,"12:21:12",1
"20/07/17","12:40",0.0,25.4,88.6,1000.8,130.8,0.7,1.9,22.7,0.26,23.4,24.7,"12:30:48",1
"20/07/17","12:50",0.0,25.4,87.5,1000.8,51.9,0.7,2.0,342.7,0.20,23.2,24.7,"12:43:12",1
"20/07/17","13:00",0.0,25.2,85.9,1000.5,88.1,0.6,1.9,110.2,0.13,22.7,24.9,"12:51:20",1
"20/07/17","13:10",0.0,24.9,84.2,1000.5,64.7,0.8,1.9,23.7,0.08,22.1,25.0,"13:09:20",1
"20/07/17","13:20",0.0,25.1,83.8,1000.3,51.7,0.6,1.6,116.9,0.10,22.2,24.9,"13:16:56",1
"20/07/17","13:30",0.0,25.2,83.0,1001.0,113.1,1.0,2.6,104.7,0.13,22.1,24.9,"13:26:40",1
"20/07/17","13:40",0.0,25.3,83.0,1001.0,117.9,1.0,2.8,119.0,0.15,22.2,25.1,"13:37:28",1
"20/07/17","13:50",0.0,26.1,82.3,1001.0,124.3,0.7,1.7,114.0,0.24,22.9,25.0,"13:43:44",1
"20/07/17","14:00",0.0,26.0,80.8,1000.3,120.3,1.0,2.4,185.1,0.21,22.5,25.0,"13:51:04",1
"20/07/17","14:10",0.0,26.3,80.1,1000.8,73.2,0.7,2.4,115.6,0.23,22.6,25.1,"14:00:08",1
"20/07/17","14:20",0.0,26.1,78.8,1000.5,16.3,0.8,2.5,5.4,0.14,22.2,25.0,"14:16:32",1
"20/07/17","14:30",0.0,26.1,79.0,1000.3,0.2,0.6,1.4,356.6,0.11,22.2,25.4,"14:25:28",1
"20/07/17","14:40",0.0,26.2,78.8,1000.0,41.5,0.7,2.7,21.8,0.14,22.3,25.4,"14:33:52",1
"20/07/17","14:50",0.0,26.2,78.6,1000.0,33.1,0.6,1.4,354.8,0.11,22.2,25.4,"14:44:08",1
"20/07/17","15:00",0.0,26.0,78.5,1000.3,98.9,0.7,2.0,114.2,0.07,22.0,25.2,"14:54:16",1
"20/07/17","15:10",0.0,25.8,78.8,1000.5,45.6,0.6,1.6,114.9,0.06,21.9,25.4,"15:00:40",1
"20/07/17","15:20",0.0,25.8,79.1,1000.8,20.8,0.6,2.2,121.9,0.06,21.9,25.4,"15:12:16",1
"20/07/17","15:30",0.0,25.9,79.3,1000.8,16.4,0.6,1.9,98.7,0.09,22.1,25.2,"15:22:40",1
"20/07/17","15:40",0.0,26.0,79.4,1000.5,44.5,0.5,1.1,101.2,0.08,22.2,25.1,"15:32:08",1
"20/07/17","15:50",0.0,25.9,79.0,1000.8,29.1,0.7,1.6,58.8,0.05,22.0,25.2,"15:48:00",1
"20/07/17","16:00",0.0,25.8,79.2,1000.5,357.8,0.5,1.4,49.1,0.03,22.0,25.3,"15:55:36",1
"20/07/17","16:10",0.0,25.9,79.5,1000.8,356.0,0.5,1.7,356.8,0.07,22.1,25.1,"16:05:04",1
"20/07/17","16:20",0.0,25.9,79.5,1000.8,358.1,0.6,1.3,358.2,0.04,22.1,25.1,"16:15:36",1
"20/07/17","16:30",0.0,25.7,79.7,1001.0,328.3,0.6,1.2,347.4,0.02,22.0,25.1,"16:21:12",1
"20/07/17","16:40",0.0,25.8,80.1,1001.0,349.3,0.3,1.0,336.8,0.02,22.1,25.2,"16:30:24",1
"20/07/17","16:50",0.0,25.5,80.5,1001.0,14.2,0.5,1.8,15.6,0.01,21.9,25.1,"16:48:00",1
"20/07/17","17:00",0.0,25.3,80.8,1000.8,48.7,0.3,1.2,355.7,0.00,21.8,25.1,"16:50:32",1
"20/07/17","17:10",0.0,25.1,81.2,1001.5,50.6,0.7,2.0,71.8,0.00,21.7,25.0,"17:09:44",1
"20/07/17","17:20",0.0,25.0,81.7,1001.5,89.3,0.8,2.0,119.0,0.00,21.7,25.1,"17:11:12",1
"20/07/17","17:30",0.0,24.9,82.1,1001.0,11.1,0.6,1.8,60.3,0.00,21.7,25.2,"17:29:44",1
"20/07/17","17:40",0.0,24.8,82.5,1001.5,357.2,0.6,1.8,351.9,0.00,21.7,24.9,"17:32:08",1
"20/07/17","17:50",0.0,24.8,82.8,1001.5,336.8,0.7,1.4,351.1,0.00,21.7,24.8,"17:41:12",1
"20/07/17","18:00",0.0,24.6,83.2,1001.9,256.4,0.2,1.1,304.6,0.00,21.6,24.8,"17:51:12",1
"20/07/17","18:10",0.0,24.4,83.7,1001.9,239.4,0.5,1.3,244.6,0.00,21.5,24.8,"18:08:40",1
"20/07/17","18:20",0.2,24.1,84.3,1001.9,258.8,0.7,1.2,238.7,0.00,21.3,24.9,"18:10:24",1
"20/07/17","18:30",0.2,23.8,84.9,1002.2,286.9,0.6,1.2,326.6,0.00,21.1,24.8,"18:21:20",1
"20/07/17","18:40",0.0,23.7,85.7,1002.2,332.9,0.3,1.0,333.8,0.00,21.2,24.8,"18:39:52",1
"20/07/17","18:50",0.4,23.4,86.2,1002.4,305.5,0.5,0.9,339.9,0.00,21.0,24.9,"18:40:32",1
"20/07/17","19:00",0.0,23.1,86.7,1002.9,333.7,0.1,0.5,321.9,0.00,20.8,24.5,"18:58:08",1
"20/07/17","19:10",0.0,23.0,87.1,1002.9,302.8,0.2,0.6,317.4,0.00,20.8,24.7,"19:08:32",1
"20/07/17","19:20",0.0,23.2,87.8,1002.9,305.3,0.6,1.4,346.9,0.00,21.1,24.7,"19:19:36",1
"20/07/17","19:30",0.2,23.1,88.2,1002.4,336.1,0.6,1.1,358.1,0.00,21.1,24.6,"19:20:16",1
"20/07/17","19:40",0.0,22.9,88.7,1002.9,256.7,0.2,0.6,312.9,0.00,21.0,24.6,"19:39:12",1
"20/07/17","19:50",0.0,22.9,89.1,1002.9,262.4,0.5,1.3,235.1,0.00,21.0,24.3,"19:49:52",1
"20/07/17","20:00",0.0,22.9,89.5,1002.9,284.1,0.6,1.3,234.9,0.00,21.1,24.6,"19:50:24",1
"20/07/17","20:10",0.0,23.1,90.0,1003.1,334.7,0.7,1.6,327.6,0.00,21.4,24.4,"20:03:12",1
"20/07/17","20:20",0.0,22.8,90.3,1003.6,305.7,0.5,1.1,326.9,0.00,21.2,24.4,"20:11:12",1
"20/07/17","20:30",0.0,22.9,90.7,1003.6,311.2,0.6,0.9,305.8,0.00,21.3,24.5,"20:28:24",1
"20/07/17","20:40",0.0,22.7,90.8,1003.6,315.7,0.5,1.0,338.2,0.00,21.2,24.2,"20:33:52",1
"20/07/17","20:50",0.0,22.8,91.2,1003.6,324.0,0.6,1.1,333.9,0.00,21.3,24.3,"20:47:04",1
"20/07/17","21:00",0.0,22.7,91.4,1003.4,329.1,0.5,0.9,340.3,0.00,21.3,24.5,"20:50:24",1
"20/07/17","21:10",0.0,22.8,91.7,1003.8,327.3,0.8,1.2,337.2,0.00,21.4,24.0,"21:02:40",1
"20/07/17","21:20",0.0,22.7,91.8,1003.6,303.4,0.7,1.2,317.3,0.00,21.3,24.2,"21:14:56",1
"20/07/17","21:30",0.0,22.7,92.1,1003.8,330.7,0.5,0.9,318.3,0.00,21.4,24.3,"21:22:48",1
"20/07/17","21:40",0.0,22.6,92.3,1003.8,301.8,0.6,1.0,346.2,0.00,21.3,24.4,"21:30:08",1
"20/07/17","21:50",0.0,22.6,92.5,1003.8,294.1,0.6,0.9,315.5,0.00,21.4,24.2,"21:47:12",1
"20/07/17","22:00",0.0,22.6,92.6,1003.8,279.2,0.7,1.1,304.6,0.00,21.4,24.2,"21:56:00",1
"20/07/17","22:10",0.0,22.6,92.8,1004.1,318.5,0.7,1.6,330.9,0.00,21.4,24.3,"22:06:08",1
"20/07/17","22:20",0.0,22.6,92.9,1004.3,306.8,0.6,1.8,336.5,0.00,21.4,24.1,"22:11:04",1
"20/07/17","22:30",0.0,22.6,93.1,1003.8,302.4,0.7,0.9,313.8,0.00,21.5,24.2,"22:28:16",1
"20/07/17","22:40",0.0,22.5,93.1,1003.6,306.4,0.5,0.9,330.0,0.00,21.4,24.1,"22:38:40",1
"20/07/17","22:50",0.0,22.6,93.3,1003.8,325.4,0.7,1.3,346.9,0.00,21.5,24.1,"22:48:24",1
"20/07/17","23:00",0.0,22.6,93.3,1003.6,324.7,0.8,1.3,330.8,0.00,21.5,24.1,"22:55:28",1
"20/07/17","23:10",0.0,22.5,93.5,1003.4,315.3,0.6,1.0,335.1,0.00,21.4,24.1,"23:04:48",1
"20/07/17","23:20",0.0,22.5,93.5,1003.1,259.4,0.1,0.4,300.1,0.00,21.4,24.3,"23:10:08",1
"20/07/17","23:30",0.0,22.5,93.6,1003.1,272.2,0.5,0.8,299.8,0.00,21.5,24.2,"23:26:00",1
"20/07/17","23:40",0.0,22.5,93.7,1003.1,289.6,0.6,1.0,312.6,0.00,21.5,23.9,"23:37:20",1
"20/07/17","23:50",0.0,22.5,93.8,1003.4,338.4,0.7,1.2,338.1,0.00,21.5,24.1,"23:45:12",1
"20/07/17","24:00",0.0,22.5,93.9,1002.9,336.4,0.7,1.1,337.2,0.00,21.5,24.1,"23:56:56",1
